Location: Howard City Library
(37.4684°N, 96.2639°W)
Time: 06:25:16
(UTC+00:00)

OE (NEXTSAT) - Pass Details

Date: 18 February 2020
Orbit: 431 x 441 km, 46.0° (Epoch: 09 April)

Event Time Altitude Azimuth Distance (km) Brightness Sun altitude
Rises 00:50:19 0° 235° (SW) 2,393 9.3 -9.4°
Reaches altitude 10° 00:52:25 10° 234° (SW) 1,530 8.2 -9.8°
Maximum altitude 00:55:52 78° 149° (SSE) 448 4.3 -10.5°
Enters shadow 00:58:37 16° 63° (ENE) 1,245 6.1 -11.0°
